User: anonymous
Location: Clatteringshaws Loch
(55.0508°N, 4.2860°W)
Time: 04:44:26
(UTC+01:00)
Language:

Cosmos 2221 Rocket - Orbit

View from above orbital plane
View from above orbital plane
View from above satellite
View from above satellite

Ground track
Ground track

The orbit data is extracted from the following two-line orbital elements,

1 22237U 92080B   14212.08121049  .00000162  00000-0  19315-4 0  3929
2 22237 082.5124 016.1957 0020705 049.0077 087.1584 14.77874485168014
Epoch (UTC): 31 July 2014 01:56:56
Eccentricity: 0.0020705
inclination: 82.5124°
perigee height: 621 km
apogee height: 650 km
right ascension of ascending node: 16.1957°
argument of perigee: 49.0077°
revolutions per day: 14.77874485
mean anomaly at epoch: 87.1584°
orbit number at epoch: 16801

The dashed part of the orbit path shows where the satellite is in the earth's shadow,  

DLR